This is the latest recevied weather packets stored in our database for station/object KE5KUL-13. If no packets are shown the sender has not sent any weather packets the latest 10 day(s).
| Time | Temp. | Humidity | Pressure | Rain* | Wind** | Luminosity | Snow |
|---|---|---|---|---|---|---|---|
| 1777342217 | 22.22° C | 12% | 1011.5 hPa | 0 mm | - | - | - |
| 1777339818 | 23.89° C | 11% | 1010.5 hPa | 0 mm | - | - | - |
| 1777339217 | 24.44° C | 11% | 1010.4 hPa | 0 mm | - | - | - |
| 1777338018 | 25° C | 10% | 1010 hPa | 0 mm | - | - | - |
| 1777337419 | 25.56° C | 10% | 1009.8 hPa | 0 mm | - | - | - |
| 1777312819 | 27.78° C | 15% | 1012.7 hPa | 0 mm | - | - | - |
| 1777312219 | 27.22° C | 15% | 1012.5 hPa | 0 mm | - | - | - |
| 1777310419 | 26.11° C | 16% | 1012.6 hPa | 0 mm | - | - | - |
| 1777308019 | 26.11° C | 16% | 1012.7 hPa | 0 mm | - | - | - |
| 1777306818 | 25° C | 19% | 1012.7 hPa | 0 mm | - | - | - |
| 1777306218 | 25° C | 18% | 1012.7 hPa | 0 mm | - | - | - |
| 1777304418 | 23.89° C | 21% | 1012.1 hPa | 0 mm | - | - | - |
| 1777300218 | 19.44° C | 25% | 1011.3 hPa | 0 mm | - | - | - |
| 1777299619 | 18.89° C | 26% | 1011.6 hPa | 0 mm | - | - | - |
| 1777299018 | 18.33° C | 27% | 1011.6 hPa | 0 mm | - | - | - |
| 1777298418 | 17.22° C | 28% | 1011.3 hPa | 0 mm | - | - | - |
| 1777296618 | 14.44° C | 30% | 1010.6 hPa | 0 mm | - | - | - |
| 1777295418 | 12.78° C | 32% | 1010.5 hPa | 0 mm | - | - | - |
| 1777294818 | 12.22° C | 33% | 1010 hPa | 0 mm | - | - | - |
| 1777294218 | 11.67° C | 33% | 1010 hPa | 0 mm | - | - | - |
| 1777293618 | 11.11° C | 32% | 1009.9 hPa | 0 mm | - | - | - |
| 1777293018 | 11.11° C | 31% | 1009.9 hPa | 0 mm | - | - | - |
| 1777292418 | 11.67° C | 30% | 1009.8 hPa | 0 mm | - | - | - |
| 1777291818 | 12.22° C | 29% | 1009.8 hPa | 0 mm | - | - | - |
| 1777291218 | 12.22° C | 29% | 1009.7 hPa | 0 mm | - | - | - |
* Rain latest hour (hover to see other rain measurements)
** Current wind speed in m/s (hover to see current wind gust speed)